Flag for Germany Weather past 2 weeks in Friesoythe, Lower Saxony, Germany

Now
64 °F

Mild.


Feels Like: 64 °F
Forecast: 58 / 67 °F
Wind: 7 mph from Southwest

Location: Meppen-Mil

Current Time: Oct 1, 2014 at 5:21:04 PM

Latest Report: Oct 1, 2014 at 4:20 PM


Visibility: 3 mi

Pressure: 30.27 "Hg

Humidity: 73%

Dew point: 55 °F

Location of FriesoytheLocation

Historic Weather in Friesoythe — Graph

°F

Friesoythe temperature yesterday

Maximum temperature yesterday: 68 °F (at 2:20 PM)
Minimum temperature yesterday: 57 °F (at 10:20 PM)
Average temperature yesterday: 62 °F

Past Weeks' High & Low Weather Summary

 TemperatureHumidityPressure
High79 °F (Sep 18, 4:20 PM)100% (Sep 19, 7:20 AM)30.39 "Hg (Sep 19, 7:20 AM)
Low41 °F (Sep 28, 7:20 AM)45% (Sep 18, 4:20 PM)29.77 "Hg (Sep 24, 4:20 PM)
Average59 °F80%30.06 "Hg
* Reported Sep 16 3:20 PM — Oct 1 3:20 PM, Friesoythe, Weather by CustomWeather, © 2014

Note: Actual official high and low records may vary slightly from our data, if they occured in-between our weather recording intervals... More about our weather records

Advertising

Friesoythe weather history for previous 24 hours

 ConditionsComfort  
Time TempWeatherWind HumidityBarometerVisibility
3:20 PM
Oct 1
64 °FMild.8 mph73%30.30 "Hg2 mi
2:20 PM66 °FScattered clouds.9 mph73%30.30 "Hg6 mi
1:20 PM66 °FScattered clouds.9 mph68%30.30 "Hg6 mi
12:20 PM66 °FScattered clouds.6 mph73%30.30 "Hg5 mi
11:20 AM63 °FPartly sunny.3 mph77%30.30 "Hg3 mi
10:20 AM61 °FFog.5 mph88%30.27 "Hg2 mi
9:20 AM57 °FFog.3 mph94%30.27 "Hg1 mi
8:20 AM55 °FFog.2 mph94%30.27 "Hg1 mi
7:20 AM55 °FFog.3 mph94%30.27 "Hg1 mi
6:20 AM55 °FCool.1 mph94%30.27 "HgN/A
5:20 AM55 °FCool.2 mph94%30.27 "Hg1 mi
4:20 AM50 °FCool.1 mph100%30.27 "Hg0 mi
3:20 AM52 °FCool.2 mph100%30.27 "Hg0 mi
2:20 AM54 °FCool.1 mph94%30.27 "Hg0 mi
1:20 AM54 °FCool.1 mph100%30.27 "Hg0 mi
12:20 AM55 °FCool.2 mph94%30.27 "Hg0 mi
11:20 PM
Sep 30
57 °FCool.2 mph94%30.27 "Hg3 mi
10:20 PM57 °FCool.1 mph88%30.27 "Hg3 mi
8:20 PM59 °FCool.1 mph82%30.27 "Hg4 mi
7:20 PM63 °FMild.5 mph77%30.24 "Hg4 mi
6:20 PM64 °FMild.3 mph78%30.24 "Hg4 mi
5:20 PM66 °FMild.6 mph68%30.24 "Hg4 mi
Weather by CustomWeather, © 2014

See weather overviewHow to use our weather pages